Regional Weather Roundup
Issued by NWS Newport/Morehead, NC

Current Version | Previous Version | Graphics & Text | Print | Product List | Glossary Off
Versions: 1 2 3 4 5 6 7 8 9 10 11 12 13 14 15 16 17 18 19 20 21 22 23 24 25 26 27 28 29 30 31 32 33 34 35 36 37 38 39 40 41 42 43 44 45 46 47 48 49 50

000
ASUS42 KMHX 192210
RWRMHX
WEATHER ROUNDUP FOR EASTERN NORTH CAROLINA
NATIONAL WEATHER SERVICE NEWPORT/MOREHEAD CITY NC
600 PM EDT FRI SEP 19 2014

NOTE: "FAIR" INDICATES FEW OR NO CLOUDS BELOW 12,000 FEET
WITH NO SIGNIFICANT WEATHER AND/OR OBSTRUCTIONS TO VISIBILITY

NCZ015>017-031-032-045>047-102-103-192300-
NORTH COAST

CITY           SKY/WX    TMP DP  RH WIND       PRES   REMARKS
EDENTON        SUNNY     74  59  59 E6        30.22R
ELIZABETH CITY SUNNY     72  57  59 E12       30.22R
KITTY HAWK     PTCLDY    73  57  56 NE7       30.20S
MANTEO         MOSUNNY   73  57  58 NE10      30.21S

$$

NCZ045>047-081-094-103-104-192300-
CENTRAL COAST

CITY           SKY/WX    TMP DP  RH WIND       PRES   REMARKS
FRISCO         PTSUNNY   72  61  68 NE13G23   30.17S
SWANQUARTER      N/A     73 N/A N/A NE7G13    30.15S

$$

NCZ095-097-098-100-101-192300-
SOUTHERN COAST

CITY           SKY/WX    TMP DP  RH WIND       PRES   REMARKS
BEAUFORT       CLOUDY    76  64  66 NE12      30.16R
CEDAR ISLAND     N/A     75 N/A N/A NE23      30.24R
JACKSONVILLE   PTSUNNY   77  63  61 NE13      30.16R
NEWPORT        NOT AVBL
PINEY ISLAND   MOCLDY    77  62  59 NE17G28   30.17R
WILMINGTON     PTSUNNY   76  65  68 NE9       30.14S


$$

NCZ011>013-027>030-043-044-078>080-089-090>093-098-192300-
COASTAL PLAIN

CITY           SKY/WX    TMP DP  RH WIND       PRES   REMARKS
AHOSKIE        SUNNY     74  58  58 NE3       30.22S
CLINTON        SUNNY     78  61  55 E6        30.16S
ELIZABETHTOWN  PTSUNNY   75  64  69 E6        30.15R
GOLDSBORO      PTSUNNY   79  61  53 E6        30.16R
GREENVILLE     MOSUNNY   77  61  57 NE9       30.21R
HAVELOCK       PTSUNNY   75  63  66 NE16      30.18S
KENANSVILLE    MOSUNNY   77  57  49 E3        30.18R
KINSTON        MOSUNNY   79  57  47 E8        30.19R
NEW BERN       PTSUNNY   78  60  53 E10       30.19R
RICHLANDS      MOSUNNY   79  61  53 E12       30.17S
ROANOKE RAPIDS NOT AVBL
ROCKY MOUNT    MOSUNNY   76  55  48 VRB5      30.20R
WASHINGTON     MOSUNNY   75  59  57 NE7       30.20R
WHITEVILLE     PTSUNNY   78  66  66 NE10      30.13R

$$

AMZ130-135-150-152-154-156-158-170-250-252-270-ANZ085-086-088-633-658-670-192300-
MARINE OBSERVATIONS

STATION/POSITION TIME  TEMP    WIND        PRES    WAVE   SWELL
                       AIR SEA DIR/SP/G            HT/PER HT/PER
                 (UTC) (F)     (DEG/KT/KT) (MB)    (FT/S) (FT/S)
CHESAPEAKE LIGHT 2100   72      70/ 13/ 14 1024.3
BUOY 44014       2200   74 75   40/ 16/ 17 1022.9    3/ 8   2/ 8
DUCK             2200   73 75   50/ 14/ 16 1022.5
2E DUCK          2100                        N/A     4/ 6   2/11
OREGON INLET     2200   73 74   30/ 15/ 18 1022.5
BUOY 44095       2200      76                N/A     5/10   2/11
20E OREGON INLET NOT AVBL
HATTERAS CG      2200   74 75   30/ 13/ 20 1022.1
DIAMOND BUOY     2200   76      20/ 19/ 25 1020.8    6/ 6   2/ 9
CAPE LOOKOUT     2100   75      40/ 22/ 24 1020.7
BEAUFORT LAB     2200   75 77   40/  8/ 15 1020.7
30 SE NEW RIVER  2100   80 83   70/ 21/ 25 1020.2
5 SE WRIGHTSVILL 2100   74 80   60/ 23/ 25   N/A
BUOY 41002       2047   79 82   70/ 14/ 19 1017.5    4/ 8   2/ 8
BUOY 41004       2200   79 82   90/ 17/ 19 1016.8    6/ 6   2/10

$$



USA.gov is the U.S. government's official web portal to all federal, state and local government web resources and services.